Regional Weather Roundup
Issued by NWS

Home | Current Version | Previous Version | Graphics & Text | Print | Product List | Glossary On
Versions: 1 2 3 4 5 6 7 8 9 10 11 12 13 14 15 16 17 18 19 20 21 22 23 24 25 26 27
000
ASUS45 KBOI 260110
RWRID

IDAHO REGIONAL WEATHER ROUNDUP
NATIONAL WEATHER SERVICE BOISE ID
700 PM MDT THU MAY 25 2017

NOTE: "FAIR" INDICATES FEW OR NO CLOUDS BELOW 12000 FEET
WITH NO SIGNIFICANT WEATHER AND/OR OBSTRUCTIONS TO VISIBILITY

IDZ012-014-260200-
SOUTHWEST IDAHO


CITY           SKY/WX    TMP DP  RH WIND       PRES   REMARKS
BOISE          FAIR      64  31  28 W9        29.71F
CALDWELL       NOT AVBL
MOUNTAIN HOME  PTSUNNY   64  30  27 NW12      29.71F
$$

IDZ016-017-260200-
SOUTHCENTRAL IDAHO


CITY           SKY/WX    TMP DP  RH WIND       PRES   REMARKS
BURLEY         SUNNY     62  28  27 NW7       29.72F
JEROME         MOSUNNY   62  28  27 VRB6      29.73F
TWIN FALLS     MOSUNNY   61  28  28 CALM      29.74S
$$

IDZ019>023-260200-
SOUTHEAST IDAHO


CITY           SKY/WX    TMP DP  RH WIND       PRES   REMARKS
IDAHO FALLS    MOSUNNY   58  30  34 W5        29.77R
POCATELLO      CLOUDY    61  28  28 CALM      29.76F
REXBURG        SUNNY     60  24  25 W6        29.76S
$$

IDZ006-010-011-018-031-032-260200-
CENTRAL IDAHO MOUNTAINS


CITY           SKY/WX    TMP DP  RH WIND       PRES   REMARKS
MCCALL         LGT RAIN  45  39  79 W5        29.78R
HAILEY         PTSUNNY   54  30  40 SE9       29.77F
STANLEY          N/A     47  29  49 VRB5      29.80R
SALMON         CLOUDY    57  36  44 N10       29.74R
CHALLIS        CLOUDY    54  33  45 N13G20    29.73S
$$

IDZ002-004-006-007-026-260200-
NORTHERN IDAHO


CITY           SKY/WX    TMP DP  RH WIND       PRES   REMARKS
LEWISTON       PTSUNNY   63  40  42 VRB6      29.81F
LOWELL           N/A     62  40  44 VRB6      29.79F
COEUR D`ALENE  PTSUNNY   64  40  41 W9        29.82S
MULLAN PASS    CLOUDY    43  34  70 NW6       29.86S
$$




USA.gov is the U.S. government's official web portal to all federal, state and local government web resources and services.